Location: Julian California
(33.0790°N, 116.6010°W)
Time: 18:47:10
(UTC-07:00)

Cosmos 1892 - Pass Details

Date: 12 July 2018
Orbit: 504 x 528 km, 82.5° (Epoch: 23 September)

Event Time Altitude Azimuth Distance (km) Brightness Sun altitude
Exits shadow 21:58:32 26° 54° (NE) 1,028 4.1 -21.2°
Drops below altitude 10° 22:00:41 10° 27° (NNE) 1,727 5.6 -21.5°
Sets 22:02:57 0° 18° (NNE) 2,621 6.7 -21.9°
